This demonstration page uses our WeatherBlox Daily Observations layout. Learn more.

Left ArrowRight Arrow

39.95238, -75.16362

Hourly Observations for June 17, 2022

Temp ( °F °C ) Dew Point ( °F °C ) Humidity (%) Winds ( mph kmh ) Pressure ( in mb ) Visibility ( mi km ) Precip ( " mm )
12:16 am 00:16 Cloudy 74 23.3 66 18.9 76 76 WSW 12 19 29.94 1014 10 16 0.00 0.00
12:48 am 00:48 Cloudy 73 23 66 19 78 78 VRB 3 6 29.90 1012 10 16 0.00 0.00
12:54 am 00:54 Cloudy 73 22.8 66 18.9 79 79 S 7 11 29.90 1012 10 16 0.00 0.00
1:10 am 01:10 Cloudy 73 22.8 66 18.9 79 79 SSW 7 11 29.89 1012 10 16 0.00 0.00
1:49 am 01:49 Cloudy 73 23 66 19 78 78 SSW 6 9 29.88 1012 10 16 0.00 0.00
1:54 am 01:54 Cloudy 73 22.8 67 19.4 81 81 S 3 6 29.87 1012 10 16 0.00 0.00
2:31 am 02:31 Cloudy 73 22.8 67 19.4 81 81 Calm 29.88 1012 10 16 0.00 0.00
2:54 am 02:54 Cloudy 73 22.8 67 19.4 81 81 Calm 29.87 1012 10 16 0.00 0.00
3:54 am 03:54 Cloudy 74 23.3 68 20 82 82 SSE 5 7 29.85 1011 10 16 0.00 0.00
4:54 am 04:54 Cloudy 74 23.3 68 20 82 82 S 5 7 29.84 1011 10 16 0.00 0.00
5:44 am 05:44 Cloudy 74 23.3 68 20 82 82 S 5 7 29.84 1010 10 16 0.00 0.00
5:54 am 05:54 Cloudy 74 23.3 69 20.6 85 85 S 5 7 29.83 1010 10 16 0.00 0.00
6:54 am 06:54 Cloudy 74 23.3 69 20.6 85 85 S 6 9 29.82 1010 10 16 0.00 0.00
7:42 am 07:42 Partly Cloudy 75 23.9 70 21.1 84 84 SW 9 15 29.82 1010 10 16 0.00 0.00
7:54 am 07:54 Partly Cloudy 76 24.4 70 21.1 82 82 SW 9 15 29.81 1010 10 16 0.00 0.00
8:54 am 08:54 Mostly Sunny 80 26.7 71 21.7 74 74 SW 10 17 29.80 1009 10 16 0.00 0.00
9:54 am 09:54 Sunny 83 28.3 70 21.1 65 65 SW 12 19 29.78 1008 10 16 0.00 0.00
10:54 am 10:54 Mostly Sunny 87 30.6 71 21.7 59 59 SW 13 20 29.76 1008 10 16 0.00 0.00
11:54 am 11:54 Partly Cloudy 91 32.8 71 21.7 52 52 SW 15 24 29.74 1007 10 16 0.00 0.00
12:54 pm 12:54 Partly Cloudy 93 33.9 65 18.3 40 40 W 18 30 29.72 1007 10 16 0.00 0.00
1:54 pm 13:54 Partly Cloudy 95 35 64 17.8 36 36 W 23 37 29.70 1006 10 16 0.00 0.00
2:54 pm 14:54 Partly Cloudy 94 34.4 61 16.1 33 33 W 20 31 29.67 1005 10 16 0.00 0.00
3:54 pm 15:54 Partly Cloudy 95 35 60 15.6 31 31 WNW 16 26 29.65 1004 10 16 0.00 0.00
4:54 pm 16:54 Mostly Sunny 94 34.4 58 14.4 30 30 NW 14 22 29.63 1004 10 16 0.00 0.00
5:54 pm 17:54 Mostly Sunny 93 33.9 58 14.4 31 31 WNW 16 26 29.63 1004 10 16 0.00 0.00
6:54 pm 18:54 Mostly Sunny 92 33.3 55 12.8 29 29 NW 14 22 29.64 1004 10 16 0.00 0.00
7:54 pm 19:54 Mostly Sunny 89 31.7 53 11.7 29 29 WNW 14 22 29.65 1004 10 16 0.00 0.00
8:54 pm 20:54 Mostly Clear 86 30 53 11.7 32 32 NW 17 28 29.65 1004 10 16 0.00 0.00
9:54 pm 21:54 Mostly Clear 84 28.9 53 11.7 34 34 NW 15 24 29.65 1004 10 16 0.00 0.00
10:54 pm 22:54 Mostly Clear 82 27.8 53 11.7 37 37 NW 14 22 29.66 1005 10 16 0.00 0.00
11:54 pm 23:54 Mostly Clear 80 26.7 51 10.6 37 37 NW 10 17 29.68 1005 10 16 0.00 0.00

Powered by AerisWeather